Year,Month,Day,Hour,Minute,Value (Times are PST for temperature in C)
2018,02,23,00,00,-3.60
2018,02,23,00,01,-3.60
2018,02,23,00,02,-3.60
2018,02,23,00,03,-3.60
2018,02,23,00,04,-3.60
2018,02,23,00,05,-3.70
2018,02,23,00,06,-3.70
2018,02,23,00,07,-3.70
2018,02,23,00,08,-3.70
2018,02,23,00,09,-3.70
2018,02,23,00,10,-3.70
2018,02,23,00,11,-3.70
2018,02,23,00,12,-3.70
2018,02,23,00,13,-3.70
2018,02,23,00,14,-3.80
2018,02,23,00,15,-3.80
2018,02,23,00,16,-3.80
2018,02,23,00,17,-3.80
2018,02,23,00,18,-3.80
2018,02,23,00,19,-3.80
2018,02,23,00,20,-3.80
2018,02,23,00,21,-3.80
2018,02,23,00,22,-3.80
2018,02,23,00,23,-3.80
2018,02,23,00,24,-3.80
2018,02,23,00,25,-3.80
2018,02,23,00,26,-3.80
2018,02,23,00,27,-3.80
2018,02,23,00,28,-3.80
2018,02,23,00,29,-3.80
2018,02,23,00,30,-3.80
2018,02,23,00,31,-3.80
2018,02,23,00,32,-3.80
2018,02,23,00,33,-3.80
2018,02,23,00,34,-3.80
2018,02,23,00,35,-3.80
2018,02,23,00,36,-3.80
2018,02,23,00,37,-3.80
2018,02,23,00,38,-3.80
2018,02,23,00,39,-3.80
2018,02,23,00,40,-3.90
2018,02,23,00,41,-3.90
2018,02,23,00,42,-3.90
2018,02,23,00,43,-3.90
2018,02,23,00,44,-3.90
2018,02,23,00,45,-3.90
2018,02,23,00,46,-3.90
2018,02,23,00,47,-3.90
2018,02,23,00,48,-3.90
2018,02,23,00,49,-3.90
2018,02,23,00,50,-3.90
2018,02,23,00,51,-3.90
2018,02,23,00,52,-3.90
2018,02,23,00,53,-3.90
2018,02,23,00,54,-3.90
2018,02,23,00,55,-3.90
2018,02,23,00,56,-4.00
2018,02,23,00,57,-4.00
2018,02,23,00,58,-4.00
2018,02,23,00,59,-4.00
2018,02,23,01,00,-4.00
2018,02,23,01,01,-4.00
2018,02,23,01,02,-4.00
2018,02,23,01,03,-4.00
2018,02,23,01,04,-4.00
2018,02,23,01,05,-4.00
2018,02,23,01,06,-4.00
2018,02,23,01,07,-4.00
2018,02,23,01,08,-4.00
2018,02,23,01,09,-4.00
2018,02,23,01,10,-4.00
2018,02,23,01,11,-4.00
2018,02,23,01,12,-4.00
2018,02,23,01,13,-3.90
2018,02,23,01,14,-3.90
2018,02,23,01,15,-3.90
2018,02,23,01,16,-3.90
2018,02,23,01,17,-3.90
2018,02,23,01,18,-3.90
2018,02,23,01,19,-3.90
2018,02,23,01,20,-3.90
2018,02,23,01,21,-3.90
2018,02,23,01,22,-3.90
2018,02,23,01,23,-3.90
2018,02,23,01,24,-3.90
2018,02,23,01,25,-3.90
2018,02,23,01,26,-4.00
2018,02,23,01,27,-4.00
2018,02,23,01,28,-4.00
2018,02,23,01,29,-4.00
2018,02,23,01,30,-4.00
2018,02,23,01,31,-4.00
2018,02,23,01,32,-4.10
2018,02,23,01,33,-4.10
2018,02,23,01,34,-4.10
2018,02,23,01,35,-4.10
2018,02,23,01,36,-4.10
2018,02,23,01,37,-4.10
2018,02,23,01,38,-4.10
2018,02,23,01,39,-4.10
2018,02,23,01,40,-4.10
2018,02,23,01,41,-4.10
2018,02,23,01,42,-4.10
2018,02,23,01,43,-4.10
2018,02,23,01,44,-4.10
2018,02,23,01,45,-4.10
2018,02,23,01,46,-4.10
2018,02,23,01,47,-4.10
2018,02,23,01,48,-4.20
2018,02,23,01,49,-4.10
2018,02,23,01,50,-4.10
2018,02,23,01,51,-4.10
2018,02,23,01,52,-4.10
2018,02,23,01,53,-4.10
2018,02,23,01,54,-4.10
2018,02,23,01,55,-4.10
2018,02,23,01,56,-4.10
2018,02,23,01,57,-4.10
2018,02,23,01,58,-4.10
2018,02,23,01,59,-4.10
2018,02,23,02,00,-4.10
2018,02,23,02,01,-4.10
2018,02,23,02,02,-4.10
2018,02,23,02,03,-4.10
2018,02,23,02,04,-4.10
2018,02,23,02,05,-4.10
2018,02,23,02,06,-4.10
2018,02,23,02,07,-4.10
2018,02,23,02,08,-4.10
2018,02,23,02,09,-4.10
2018,02,23,02,10,-4.10
2018,02,23,02,11,-4.10
2018,02,23,02,12,-4.10
2018,02,23,02,13,-4.10
2018,02,23,02,14,-4.10
2018,02,23,02,15,-4.10
2018,02,23,02,16,-4.10
2018,02,23,02,17,-4.10
2018,02,23,02,18,-4.10
2018,02,23,02,19,-4.10
2018,02,23,02,20,-4.10
2018,02,23,02,21,-4.20
2018,02,23,02,22,-4.10
2018,02,23,02,23,-4.20
2018,02,23,02,24,-4.20
2018,02,23,02,25,-4.20
2018,02,23,02,26,-4.20
2018,02,23,02,27,-4.20
2018,02,23,02,28,-4.20
2018,02,23,02,29,-4.20
2018,02,23,02,30,-4.20
2018,02,23,02,31,-4.20
2018,02,23,02,32,-4.20
2018,02,23,02,33,-4.20
2018,02,23,02,34,-4.20
2018,02,23,02,35,-4.20
2018,02,23,02,36,-4.20
2018,02,23,02,37,-4.20
2018,02,23,02,38,-4.20
2018,02,23,02,39,-4.20
2018,02,23,02,40,-4.20
2018,02,23,02,41,-4.20
2018,02,23,02,42,-4.20
2018,02,23,02,43,-4.20
2018,02,23,02,44,-4.20
2018,02,23,02,45,-4.20
2018,02,23,02,46,-4.20
2018,02,23,02,47,-4.10
2018,02,23,02,48,-4.10
2018,02,23,02,49,-4.10
2018,02,23,02,50,-4.10
2018,02,23,02,51,-4.10
2018,02,23,02,52,-4.10
2018,02,23,02,53,-4.10
2018,02,23,02,54,-4.10
2018,02,23,02,55,-4.10
2018,02,23,02,56,-4.10
2018,02,23,02,57,-4.10
2018,02,23,02,58,-4.10
2018,02,23,02,59,-4.10
2018,02,23,03,00,-4.10
2018,02,23,03,01,-4.10
2018,02,23,03,02,-4.10
2018,02,23,03,03,-4.10
2018,02,23,03,04,-4.10
2018,02,23,03,05,-4.10
2018,02,23,03,06,-4.10
2018,02,23,03,07,-4.10
2018,02,23,03,08,-4.10
2018,02,23,03,09,-4.10
2018,02,23,03,10,-4.10
2018,02,23,03,11,-4.10
2018,02,23,03,12,-4.10
2018,02,23,03,13,-4.10
2018,02,23,03,14,-4.10
2018,02,23,03,15,-4.10
2018,02,23,03,16,-4.10
2018,02,23,03,17,-4.10
2018,02,23,03,18,-4.10
2018,02,23,03,19,-4.00
2018,02,23,03,20,-4.00
2018,02,23,03,21,-4.00
2018,02,23,03,22,-4.00
2018,02,23,03,23,-4.00
2018,02,23,03,24,-4.00
2018,02,23,03,25,-4.00
2018,02,23,03,26,-4.00
2018,02,23,03,27,-4.00
2018,02,23,03,28,-4.00
2018,02,23,03,29,-4.00
2018,02,23,03,30,-3.90
2018,02,23,03,31,-3.90
2018,02,23,03,32,-3.90
2018,02,23,03,33,-3.90
2018,02,23,03,34,-3.90
2018,02,23,03,35,-3.90
2018,02,23,03,36,-3.90
2018,02,23,03,37,-3.90
2018,02,23,03,38,-3.90
2018,02,23,03,39,-3.80
2018,02,23,03,40,-3.80
2018,02,23,03,41,-3.80
2018,02,23,03,42,-3.80
2018,02,23,03,43,-3.80
2018,02,23,03,44,-3.80
2018,02,23,03,45,-3.80
2018,02,23,03,46,-3.80
2018,02,23,03,47,-3.80
2018,02,23,03,48,-3.70
2018,02,23,03,49,-3.70
2018,02,23,03,50,-3.70
2018,02,23,03,51,-3.70
2018,02,23,03,52,-3.70
2018,02,23,03,53,-3.70
2018,02,23,03,54,-3.70
2018,02,23,03,55,-3.70
2018,02,23,03,56,-3.60
2018,02,23,03,57,-3.60
2018,02,23,03,58,-3.60
2018,02,23,03,59,-3.60
2018,02,23,04,00,-3.60
2018,02,23,04,01,-3.50
2018,02,23,04,02,-3.50
2018,02,23,04,03,-3.50
2018,02,23,04,04,-3.40
2018,02,23,04,05,-3.40
2018,02,23,04,06,-3.40
2018,02,23,04,07,-3.40
2018,02,23,04,08,-3.40
2018,02,23,04,09,-3.30
2018,02,23,04,10,-3.30
2018,02,23,04,11,-3.30
2018,02,23,04,12,-3.30
2018,02,23,04,13,-3.30
2018,02,23,04,14,-3.20
2018,02,23,04,15,-3.20
2018,02,23,04,16,-3.20
2018,02,23,04,17,-3.20
2018,02,23,04,18,-3.20
2018,02,23,04,19,-3.20
2018,02,23,04,20,-3.20
2018,02,23,04,21,-3.10
2018,02,23,04,22,-3.10
2018,02,23,04,23,-3.10
2018,02,23,04,24,-3.10
2018,02,23,04,25,-3.10
2018,02,23,04,26,-3.10
2018,02,23,04,27,-3.10
2018,02,23,04,28,-3.00
2018,02,23,04,29,-3.10
2018,02,23,04,30,-3.10
2018,02,23,04,31,-3.10
2018,02,23,04,32,-3.00
2018,02,23,04,33,-3.00
2018,02,23,04,34,-3.00
2018,02,23,04,35,-2.90
2018,02,23,04,36,-2.90
2018,02,23,04,37,-2.90
2018,02,23,04,38,-2.90
2018,02,23,04,39,-2.90
2018,02,23,04,40,-2.90
2018,02,23,04,41,-2.80
2018,02,23,04,42,-2.80
2018,02,23,04,43,-2.80
2018,02,23,04,44,-2.80
2018,02,23,04,45,-2.80
2018,02,23,04,46,-2.80
2018,02,23,04,47,-2.80
2018,02,23,04,48,-2.80
2018,02,23,04,49,-2.80
2018,02,23,04,50,-2.80
2018,02,23,04,51,-2.70
2018,02,23,04,52,-2.70
2018,02,23,04,53,-2.70
2018,02,23,04,54,-2.70
2018,02,23,04,55,-2.70
2018,02,23,04,56,-2.70
2018,02,23,04,57,-2.70
2018,02,23,04,58,-2.70
2018,02,23,04,59,-2.70
2018,02,23,05,00,-2.70
2018,02,23,05,01,-2.70
2018,02,23,05,02,-2.70
2018,02,23,05,03,-2.70
2018,02,23,05,04,-2.70
2018,02,23,05,05,-2.70
2018,02,23,05,06,-2.70
2018,02,23,05,07,-2.70
2018,02,23,05,08,-2.70
2018,02,23,05,09,-2.70
2018,02,23,05,10,-2.70
2018,02,23,05,11,-2.70
2018,02,23,05,12,-2.70
2018,02,23,05,13,-2.70
2018,02,23,05,14,-2.70
2018,02,23,05,15,-2.70
2018,02,23,05,16,-2.70
2018,02,23,05,17,-2.70
2018,02,23,05,18,-2.70
2018,02,23,05,19,-2.70
2018,02,23,05,20,-2.70
2018,02,23,05,21,-2.60
2018,02,23,05,22,-2.60
2018,02,23,05,23,-2.60
2018,02,23,05,24,-2.60
2018,02,23,05,25,-2.50
2018,02,23,05,26,-2.50
2018,02,23,05,27,-2.50
2018,02,23,05,28,-2.50
2018,02,23,05,29,-2.50
2018,02,23,05,30,-2.40
2018,02,23,05,31,-2.40
2018,02,23,05,32,-2.40
2018,02,23,05,33,-2.40
2018,02,23,05,34,-2.40
2018,02,23,05,35,-2.40
2018,02,23,05,36,-2.30
2018,02,23,05,37,-2.30
2018,02,23,05,38,-2.30
2018,02,23,05,39,-2.30
2018,02,23,05,40,-2.30
2018,02,23,05,41,-2.30
2018,02,23,05,42,-2.30
2018,02,23,05,43,-2.30
2018,02,23,05,44,-2.30
2018,02,23,05,45,-2.30
2018,02,23,05,46,-2.30
2018,02,23,05,47,-2.20
2018,02,23,05,48,-2.20
2018,02,23,05,49,-2.20
2018,02,23,05,50,-2.20
2018,02,23,05,51,-2.20
2018,02,23,05,52,-2.30
2018,02,23,05,53,-2.30
2018,02,23,05,54,-2.20
2018,02,23,05,55,-2.20
2018,02,23,05,56,-2.20
2018,02,23,05,57,-2.20
2018,02,23,05,58,-2.20
2018,02,23,05,59,-2.10
2018,02,23,06,00,-2.20
2018,02,23,06,01,-2.20
2018,02,23,06,02,-2.20
2018,02,23,06,03,-2.20
2018,02,23,06,04,-2.20
2018,02,23,06,05,-2.20
2018,02,23,06,06,-2.20
2018,02,23,06,07,-2.20
2018,02,23,06,08,-2.20
2018,02,23,06,09,-2.20
2018,02,23,12,34,1.50
2018,02,23,12,35,1.50
2018,02,23,12,36,1.50
2018,02,23,12,37,1.50
2018,02,23,12,38,1.50
2018,02,23,12,39,1.50
2018,02,23,12,40,1.50
2018,02,23,12,41,1.50
2018,02,23,12,42,1.50
2018,02,23,12,43,1.50
2018,02,23,12,44,1.50
2018,02,23,12,45,1.50
2018,02,23,12,46,1.50
2018,02,23,12,47,1.50
2018,02,23,12,48,1.60
2018,02,23,12,49,1.60
2018,02,23,12,50,1.60
2018,02,23,12,51,1.60
2018,02,23,12,52,1.60
2018,02,23,12,53,1.60
2018,02,23,12,54,1.50
2018,02,23,12,55,1.50
2018,02,23,12,56,1.50
2018,02,23,12,57,1.50
2018,02,23,12,58,1.50
2018,02,23,12,59,1.50
2018,02,23,13,00,1.50
2018,02,23,13,01,1.50
2018,02,23,13,02,1.40
2018,02,23,13,03,1.40
2018,02,23,13,04,1.40
2018,02,23,13,05,1.40
2018,02,23,13,06,1.40
2018,02,23,13,07,1.40
2018,02,23,13,08,1.40
2018,02,23,13,09,1.40
2018,02,23,13,10,1.40
2018,02,23,13,11,1.40
2018,02,23,13,12,1.40
2018,02,23,13,13,1.40
2018,02,23,13,14,1.40
2018,02,23,13,15,1.40
2018,02,23,13,16,1.40
2018,02,23,13,17,1.40
2018,02,23,13,18,1.40
2018,02,23,13,19,1.30
2018,02,23,13,20,1.30
2018,02,23,13,21,1.40
2018,02,23,13,22,1.40
2018,02,23,13,23,1.40
2018,02,23,13,24,1.40
2018,02,23,13,25,1.40
2018,02,23,13,26,1.40
2018,02,23,13,27,1.40
2018,02,23,13,28,1.40
2018,02,23,13,29,1.50
2018,02,23,13,30,1.50
2018,02,23,13,31,1.50
2018,02,23,13,32,1.50
2018,02,23,13,33,1.40
2018,02,23,13,34,1.40
2018,02,23,13,35,1.40
2018,02,23,13,36,1.30
2018,02,23,13,37,1.30
2018,02,23,13,38,1.30
2018,02,23,13,39,1.30
2018,02,23,13,40,1.30
2018,02,23,13,41,1.30
2018,02,23,13,42,1.30
2018,02,23,13,43,1.30
2018,02,23,13,44,1.30
2018,02,23,13,45,1.30
2018,02,23,13,46,1.30
2018,02,23,13,47,1.40
2018,02,23,13,48,1.40
2018,02,23,13,49,1.40
2018,02,23,13,50,1.40
2018,02,23,13,51,1.40
2018,02,23,13,52,1.40
2018,02,23,13,53,1.40
2018,02,23,13,54,1.40
2018,02,23,13,55,1.40
2018,02,23,13,56,1.40
2018,02,23,13,57,1.50
2018,02,23,13,58,1.50
2018,02,23,13,59,1.50
2018,02,23,14,00,1.50
2018,02,23,14,01,1.50
2018,02,23,14,02,1.50
2018,02,23,14,03,1.50
2018,02,23,14,04,1.40
2018,02,23,14,05,1.40
2018,02,23,14,06,1.40
2018,02,23,14,07,1.40
2018,02,23,14,08,1.30
2018,02,23,14,09,1.30
2018,02,23,14,10,1.30
2018,02,23,14,11,1.30
2018,02,23,14,12,1.20
2018,02,23,14,13,1.20
2018,02,23,14,14,1.20
2018,02,23,14,15,1.20
2018,02,23,14,16,1.10
2018,02,23,14,17,1.10
2018,02,23,14,18,1.00
2018,02,23,14,19,1.00
2018,02,23,14,20,1.00
2018,02,23,14,21,1.00
2018,02,23,14,22,1.00
2018,02,23,14,23,1.00
2018,02,23,14,24,1.00
2018,02,23,14,25,0.90
2018,02,23,14,26,0.90
2018,02,23,14,27,0.90
2018,02,23,14,28,0.90
2018,02,23,14,29,0.90
2018,02,23,14,30,0.90
2018,02,23,14,31,0.90
2018,02,23,14,32,0.90
2018,02,23,14,33,0.90
2018,02,23,14,34,0.90
2018,02,23,14,35,0.90
2018,02,23,14,36,0.90
2018,02,23,14,37,0.90
2018,02,23,14,38,0.90
2018,02,23,14,39,0.90
2018,02,23,14,40,0.90
2018,02,23,14,41,0.90
2018,02,23,14,42,0.90
2018,02,23,14,43,0.90
2018,02,23,14,44,0.90
2018,02,23,14,45,0.90
2018,02,23,14,46,0.90
2018,02,23,14,47,0.90
2018,02,23,14,48,0.90
2018,02,23,14,49,0.90
2018,02,23,14,50,0.90
2018,02,23,14,51,0.90
2018,02,23,14,52,0.90
2018,02,23,14,53,0.90
2018,02,23,14,54,0.90
2018,02,23,14,55,0.90
2018,02,23,14,56,0.90
2018,02,23,14,57,0.90
2018,02,23,14,58,0.90
2018,02,23,14,59,0.90
2018,02,23,15,00,1.00
2018,02,23,15,01,1.00
2018,02,23,15,02,1.00
2018,02,23,15,03,1.10
2018,02,23,15,04,1.10
2018,02,23,15,05,1.10
2018,02,23,15,06,1.10
2018,02,23,15,07,1.10
2018,02,23,15,08,1.10
2018,02,23,15,09,1.10
2018,02,23,15,10,1.10
2018,02,23,15,11,1.10
2018,02,23,15,12,1.10
2018,02,23,15,13,1.20
2018,02,23,15,14,1.20
2018,02,23,15,15,1.20
2018,02,23,15,16,1.20
2018,02,23,15,17,1.20
2018,02,23,15,18,1.20
2018,02,23,15,19,1.20
2018,02,23,15,20,1.20
2018,02,23,15,21,1.20
2018,02,23,15,22,1.20
2018,02,23,15,23,1.20
2018,02,23,15,24,1.20
2018,02,23,15,25,1.20
2018,02,23,15,26,1.20
2018,02,23,15,27,1.10
2018,02,23,15,28,1.10
2018,02,23,15,29,1.10
2018,02,23,15,30,1.10
2018,02,23,15,31,1.10
2018,02,23,15,32,1.10
2018,02,23,15,33,1.10
2018,02,23,15,34,1.10
2018,02,23,15,35,1.10
2018,02,23,15,36,1.10
2018,02,23,15,37,1.20
2018,02,23,15,38,1.20
2018,02,23,15,39,1.20
2018,02,23,15,40,1.20
2018,02,23,15,41,1.20
2018,02,23,15,42,1.20
2018,02,23,15,43,1.20
2018,02,23,15,44,1.20
2018,02,23,15,45,1.20
2018,02,23,15,46,1.20
2018,02,23,15,47,1.20
2018,02,23,15,48,1.20
2018,02,23,15,49,1.20
2018,02,23,15,50,1.20
2018,02,23,15,51,1.20
2018,02,23,15,52,1.20
2018,02,23,15,53,1.20
2018,02,23,15,54,1.30
2018,02,23,15,55,1.30
2018,02,23,15,56,1.30
2018,02,23,15,57,1.30
2018,02,23,15,58,1.30
2018,02,23,15,59,1.30
2018,02,23,16,00,1.30
2018,02,23,16,01,1.30
2018,02,23,16,02,1.30
2018,02,23,16,03,1.30
2018,02,23,16,04,1.30
2018,02,23,16,05,1.30
2018,02,23,16,06,1.30
2018,02,23,16,07,1.30
2018,02,23,16,08,1.30
2018,02,23,16,09,1.30
2018,02,23,16,10,1.30
2018,02,23,16,11,1.30
2018,02,23,16,12,1.30
2018,02,23,16,13,1.30
2018,02,23,16,14,1.30
2018,02,23,16,15,1.20
2018,02,23,16,16,1.20
2018,02,23,16,17,1.20
2018,02,23,16,18,1.20
2018,02,23,16,19,1.20
2018,02,23,16,20,1.20
2018,02,23,16,21,1.20
2018,02,23,16,22,1.20
2018,02,23,16,23,1.30
2018,02,23,16,24,1.20
2018,02,23,16,25,1.20
2018,02,23,16,26,1.30
2018,02,23,16,27,1.30
2018,02,23,16,28,1.30
2018,02,23,16,29,1.30
2018,02,23,16,30,1.30
2018,02,23,16,31,1.30
2018,02,23,16,32,1.30
2018,02,23,16,33,1.30
2018,02,23,16,34,1.30
2018,02,23,16,35,1.30
2018,02,23,16,36,1.30
2018,02,23,16,37,1.30
2018,02,23,16,38,1.30
2018,02,23,16,39,1.30
2018,02,23,16,40,1.30
2018,02,23,16,41,1.30
2018,02,23,16,42,1.30
2018,02,23,16,43,1.30
2018,02,23,16,44,1.30
2018,02,23,16,45,1.30
2018,02,23,16,46,1.40
2018,02,23,16,47,1.40
2018,02,23,16,48,1.40
2018,02,23,16,49,1.40
2018,02,23,16,50,1.40
2018,02,23,16,51,1.40
2018,02,23,16,52,1.40
2018,02,23,16,53,1.40
2018,02,23,16,54,1.40
2018,02,23,16,55,1.40
2018,02,23,16,56,1.50
2018,02,23,16,57,1.50
2018,02,23,16,58,1.50
2018,02,23,16,59,1.50
2018,02,23,17,00,1.50
2018,02,23,17,01,1.50
2018,02,23,17,02,1.50
2018,02,23,17,03,1.50
2018,02,23,17,04,1.50
2018,02,23,17,05,1.50
2018,02,23,17,06,1.50
2018,02,23,17,07,1.50
2018,02,23,17,08,1.50
2018,02,23,17,09,1.50
2018,02,23,17,10,1.50
2018,02,23,17,11,1.50
2018,02,23,17,12,1.50
2018,02,23,17,13,1.50
2018,02,23,17,14,1.50
2018,02,23,17,15,1.50
2018,02,23,17,16,1.50
2018,02,23,17,17,1.40
2018,02,23,17,18,1.40
2018,02,23,17,19,1.40
2018,02,23,17,20,1.40
2018,02,23,17,21,1.40
2018,02,23,17,22,1.40
2018,02,23,17,23,1.40
2018,02,23,17,24,1.40
2018,02,23,17,25,1.40
2018,02,23,17,26,1.40
2018,02,23,17,27,1.50
2018,02,23,17,28,1.40
2018,02,23,17,29,1.50
2018,02,23,17,30,1.50
2018,02,23,17,31,1.50
2018,02,23,17,32,1.50
2018,02,23,17,33,1.50
2018,02,23,17,34,1.50
2018,02,23,17,35,1.50
2018,02,23,17,36,1.50
2018,02,23,17,37,1.50
2018,02,23,17,38,1.50
2018,02,23,17,39,1.50
2018,02,23,17,40,1.50
2018,02,23,17,41,1.50
2018,02,23,17,42,1.50
2018,02,23,17,43,1.50
2018,02,23,17,44,1.50
2018,02,23,17,45,1.50
2018,02,23,17,46,1.50
2018,02,23,17,47,1.50
2018,02,23,17,48,1.50
2018,02,23,17,49,1.50
2018,02,23,17,50,1.50
2018,02,23,17,51,1.50
2018,02,23,17,52,1.50
2018,02,23,17,53,1.50
2018,02,23,17,54,1.50
2018,02,23,17,55,1.50
2018,02,23,17,56,1.50
2018,02,23,17,57,1.50
2018,02,23,17,58,1.50
2018,02,23,17,59,1.50
2018,02,23,18,00,1.50
2018,02,23,18,01,1.50
2018,02,23,18,02,1.50
2018,02,23,18,03,1.50
2018,02,23,18,04,1.50
2018,02,23,18,05,1.50
2018,02,23,18,06,1.50
2018,02,23,18,07,1.50
2018,02,23,18,08,1.50
2018,02,23,18,09,1.50
2018,02,23,18,10,1.50
2018,02,23,18,11,1.50
2018,02,23,18,12,1.50
2018,02,23,18,13,1.60
2018,02,23,18,14,1.60
2018,02,23,18,15,1.60
2018,02,23,18,16,1.60
2018,02,23,18,17,1.50
2018,02,23,18,18,1.50
2018,02,23,18,19,1.40
2018,02,23,18,20,1.40
2018,02,23,18,21,1.30
2018,02,23,18,22,1.30
2018,02,23,18,23,1.30
2018,02,23,18,24,1.20
2018,02,23,18,25,1.20
2018,02,23,18,26,1.20
2018,02,23,18,27,1.20
2018,02,23,18,28,1.10
2018,02,23,18,29,1.10
2018,02,23,18,30,1.10
2018,02,23,18,31,1.10
2018,02,23,18,32,1.00
2018,02,23,18,33,1.00
2018,02,23,18,34,1.00
2018,02,23,18,35,1.00
2018,02,23,18,36,0.90
2018,02,23,18,37,0.90
2018,02,23,18,38,0.90
2018,02,23,18,39,0.90
2018,02,23,18,40,0.90
2018,02,23,18,41,0.80
2018,02,23,18,42,0.80
2018,02,23,18,43,0.80
2018,02,23,18,44,0.80
2018,02,23,18,45,0.80
2018,02,23,18,46,0.80
2018,02,23,18,47,0.80
2018,02,23,18,48,0.80
2018,02,23,18,49,0.80
2018,02,23,18,50,0.80
2018,02,23,18,51,0.80
2018,02,23,18,52,0.80
2018,02,23,18,53,0.80
2018,02,23,18,54,0.80
2018,02,23,18,55,0.80
2018,02,23,18,56,0.80
2018,02,23,18,57,0.80
2018,02,23,18,58,0.80
2018,02,23,18,59,0.80
2018,02,23,19,00,0.80
2018,02,23,19,01,0.80
2018,02,23,19,02,0.80
2018,02,23,19,03,0.80
2018,02,23,19,04,0.80
2018,02,23,19,05,0.80
2018,02,23,19,06,0.80
2018,02,23,19,07,0.80
2018,02,23,19,08,0.80
2018,02,23,19,09,0.80
2018,02,23,19,10,0.80
2018,02,23,19,11,0.80
2018,02,23,19,12,0.80
2018,02,23,19,13,0.80
2018,02,23,19,14,0.80
2018,02,23,19,15,0.80
2018,02,23,19,16,0.80
2018,02,23,19,17,0.80
2018,02,23,19,18,0.80
2018,02,23,19,19,0.80
2018,02,23,19,20,0.80
2018,02,23,19,21,0.80
2018,02,23,19,22,0.80
2018,02,23,19,23,0.80
2018,02,23,19,24,0.90
2018,02,23,19,25,0.90
2018,02,23,19,26,0.90
2018,02,23,19,27,0.90
2018,02,23,19,28,0.90
2018,02,23,19,29,0.90
2018,02,23,19,30,0.90
2018,02,23,19,31,0.90
2018,02,23,19,32,0.90
2018,02,23,19,33,0.90
2018,02,23,19,34,0.90
2018,02,23,19,35,0.90
2018,02,23,19,36,0.90
2018,02,23,19,37,0.90
2018,02,23,19,38,0.90
2018,02,23,19,39,0.90
2018,02,23,19,40,0.90
2018,02,23,19,41,0.90
2018,02,23,19,42,0.90
2018,02,23,19,43,0.90
2018,02,23,19,44,1.00
2018,02,23,19,45,1.00
2018,02,23,19,46,1.00
2018,02,23,19,47,1.00
2018,02,23,19,48,1.00
2018,02,23,19,49,1.00
2018,02,23,19,50,1.00
2018,02,23,19,51,1.00
2018,02,23,19,52,1.00
2018,02,23,19,53,1.00
2018,02,23,19,54,1.00
2018,02,23,19,55,1.00
2018,02,23,19,56,1.00
2018,02,23,19,57,1.00
2018,02,23,19,58,1.00
2018,02,23,19,59,1.00
2018,02,23,20,00,1.00
2018,02,23,20,01,1.00
2018,02,23,20,02,1.00
2018,02,23,20,03,1.00
2018,02,23,20,04,1.00
2018,02,23,20,05,1.00
2018,02,23,20,06,1.00
2018,02,23,20,07,1.00
2018,02,23,20,08,1.00
2018,02,23,20,09,0.90
2018,02,23,20,10,0.90
2018,02,23,20,11,0.90
2018,02,23,20,12,0.90
2018,02,23,20,13,0.90
2018,02,23,20,14,0.90
2018,02,23,20,15,0.90
2018,02,23,20,16,0.90
2018,02,23,20,17,0.90
2018,02,23,20,18,0.90
2018,02,23,20,19,0.90
2018,02,23,20,20,0.90
2018,02,23,20,21,0.80
2018,02,23,20,22,0.80
2018,02,23,20,23,0.80
2018,02,23,20,24,0.80
2018,02,23,20,25,0.80
2018,02,23,20,26,0.80
2018,02,23,20,27,0.80
2018,02,23,20,28,0.80
2018,02,23,20,29,0.80
2018,02,23,20,30,0.80
2018,02,23,20,31,0.80
2018,02,23,20,32,0.80
2018,02,23,20,33,0.80
2018,02,23,20,34,0.80
2018,02,23,20,35,0.80
2018,02,23,20,36,0.80
2018,02,23,20,37,0.80
2018,02,23,20,38,0.80
2018,02,23,20,39,0.80
2018,02,23,20,40,0.80
2018,02,23,20,41,0.80
2018,02,23,20,42,0.80
2018,02,23,20,43,0.80
2018,02,23,20,44,0.80
2018,02,23,20,45,0.80
2018,02,23,20,46,0.80
2018,02,23,20,47,0.80
2018,02,23,20,48,0.80
2018,02,23,20,49,0.80
2018,02,23,20,50,0.80
2018,02,23,20,51,0.80
2018,02,23,20,52,0.80
2018,02,23,20,53,0.80
2018,02,23,20,54,0.80
2018,02,23,20,55,0.80
2018,02,23,20,56,0.80
2018,02,23,20,57,0.80
2018,02,23,20,58,0.80
2018,02,23,20,59,0.80
2018,02,23,21,00,0.80
2018,02,23,21,01,0.80
2018,02,23,21,02,0.80
2018,02,23,21,03,0.80
2018,02,23,21,04,0.80
2018,02,23,21,05,0.80
2018,02,23,21,06,0.80
2018,02,23,21,07,0.80
2018,02,23,21,08,0.80
2018,02,23,21,09,0.80
2018,02,23,21,10,0.80
2018,02,23,21,11,0.80
2018,02,23,21,12,0.80
2018,02,23,21,13,0.80
2018,02,23,21,14,0.80
2018,02,23,21,15,0.80
2018,02,23,21,16,0.80
2018,02,23,21,17,0.80
2018,02,23,21,18,0.80
2018,02,23,21,19,0.80
2018,02,23,21,20,0.80
2018,02,23,21,21,0.80
2018,02,23,21,22,0.80
2018,02,23,21,23,0.80
2018,02,23,21,24,0.80
2018,02,23,21,25,0.80
2018,02,23,21,26,0.80
2018,02,23,21,27,0.80
2018,02,23,21,28,0.80
2018,02,23,21,29,0.80
2018,02,23,21,30,0.80
2018,02,23,21,31,0.80
2018,02,23,21,32,0.80
2018,02,23,21,33,0.80
2018,02,23,21,34,0.80
2018,02,23,21,35,0.80
2018,02,23,21,36,0.80
2018,02,23,21,37,0.80
2018,02,23,21,38,0.80
2018,02,23,21,39,0.80
2018,02,23,21,40,0.80
2018,02,23,21,41,0.80
2018,02,23,21,42,0.80
2018,02,23,21,43,0.80
2018,02,23,21,44,0.80
2018,02,23,21,45,0.80
2018,02,23,21,46,0.80
2018,02,23,21,47,0.80
2018,02,23,21,48,0.80
2018,02,23,21,49,0.80
2018,02,23,21,50,0.80
2018,02,23,21,51,0.80
2018,02,23,21,52,0.80
2018,02,23,21,53,0.80
2018,02,23,21,54,0.80
2018,02,23,21,55,0.80
2018,02,23,21,56,0.80
2018,02,23,21,57,0.80
2018,02,23,21,58,0.80
2018,02,23,21,59,0.80
2018,02,23,22,00,0.80
2018,02,23,22,01,0.80
2018,02,23,22,02,0.80
2018,02,23,22,03,0.80
2018,02,23,22,04,0.80
2018,02,23,22,05,0.80
2018,02,23,22,06,0.80
2018,02,23,22,07,0.80
2018,02,23,22,08,0.80
2018,02,23,22,09,0.80
2018,02,23,22,10,0.80
2018,02,23,22,11,0.80
2018,02,23,22,12,0.80
2018,02,23,22,13,0.80
2018,02,23,22,14,0.80
2018,02,23,22,15,0.80
2018,02,23,22,16,0.80
2018,02,23,22,17,0.80
2018,02,23,22,18,0.80
2018,02,23,22,19,0.80
2018,02,23,22,20,0.70
2018,02,23,22,21,0.80
2018,02,23,22,22,0.80
2018,02,23,22,23,0.80
2018,02,23,22,24,0.80
2018,02,23,22,25,0.80
2018,02,23,22,26,0.80
2018,02,23,22,27,0.80
2018,02,23,22,28,0.80
2018,02,23,22,29,0.80
2018,02,23,22,30,0.80
2018,02,23,22,31,0.80
2018,02,23,22,32,0.80
2018,02,23,22,33,0.80
2018,02,23,22,34,0.80
2018,02,23,22,35,0.70
2018,02,23,22,36,0.70
2018,02,23,22,37,0.70
2018,02,23,22,38,0.70
2018,02,23,22,39,0.70
2018,02,23,22,40,0.70
2018,02,23,22,41,0.70
2018,02,23,22,42,0.70
2018,02,23,22,43,0.80
2018,02,23,22,44,0.80
2018,02,23,22,45,0.80
2018,02,23,22,46,0.80
2018,02,23,22,47,0.80
2018,02,23,22,48,0.80
2018,02,23,22,49,0.80
2018,02,23,22,50,0.80
2018,02,23,22,51,0.80
2018,02,23,22,52,0.80
2018,02,23,22,53,0.80
2018,02,23,22,54,0.80
2018,02,23,22,55,0.80
2018,02,23,22,56,0.80
2018,02,23,22,57,0.80
2018,02,23,22,58,0.80
2018,02,23,22,59,0.80
2018,02,23,23,00,0.80
2018,02,23,23,01,0.80
2018,02,23,23,02,0.80
2018,02,23,23,03,0.80
2018,02,23,23,04,0.80
2018,02,23,23,05,0.80
2018,02,23,23,06,0.80
2018,02,23,23,07,0.80
2018,02,23,23,08,0.80
2018,02,23,23,09,0.80
2018,02,23,23,10,0.90
2018,02,23,23,11,0.90
2018,02,23,23,12,0.90
2018,02,23,23,13,0.90
2018,02,23,23,14,0.90
2018,02,23,23,15,0.90
2018,02,23,23,16,0.90
2018,02,23,23,17,0.90
2018,02,23,23,18,0.90
2018,02,23,23,19,0.90
2018,02,23,23,20,0.90
2018,02,23,23,21,0.90
2018,02,23,23,22,0.90
2018,02,23,23,23,0.90
2018,02,23,23,24,0.90
2018,02,23,23,25,0.90
2018,02,23,23,26,0.90
2018,02,23,23,27,0.90
2018,02,23,23,28,0.90
2018,02,23,23,29,0.90
2018,02,23,23,30,0.90
2018,02,23,23,31,1.00
2018,02,23,23,32,1.00
2018,02,23,23,33,1.00
2018,02,23,23,34,1.00
2018,02,23,23,35,1.00
2018,02,23,23,36,1.00
2018,02,23,23,37,1.00
2018,02,23,23,38,1.00
2018,02,23,23,39,1.00
2018,02,23,23,40,1.00
2018,02,23,23,41,1.00
2018,02,23,23,42,1.00
2018,02,23,23,43,0.90
2018,02,23,23,44,0.90
2018,02,23,23,45,0.90
2018,02,23,23,46,0.90
2018,02,23,23,47,0.90
2018,02,23,23,48,0.90
2018,02,23,23,49,0.90
2018,02,23,23,50,0.90
2018,02,23,23,51,0.90
2018,02,23,23,52,0.90
2018,02,23,23,53,0.90
2018,02,23,23,54,0.80
2018,02,23,23,55,0.80
2018,02,23,23,56,0.80
2018,02,23,23,57,0.80
2018,02,23,23,58,0.80
2018,02,23,23,59,0.80
